La Push, WA

2:35 AM PST on February 12, 2016 (GMT -0800)
Quillayute

Weather History for KUIL - March, 2013

Change the Weather History Date:

Thursday, March 14, 2013

  Actual Average Record
Temperature  
Mean Temperature 50 °F 44 °F  
Max Temperature 51 °F 51 °F 61 °F (1988)
Min Temperature 49 °F 37 °F 29 °F (1999)
Degree Days  
Heating Degree Days 15 21  
Month to date heating degree days 286 302  
Since 1 July heating degree days 3979 4147  
Cooling Degree Days 0 0  
Month to date cooling degree days 0 0  
Year to date cooling degree days 0 0  
Moisture  
Dew Point 46 °F    
Average Humidity 87    
Maximum Humidity 93    
Minimum Humidity 80    
Precipitation  
Precipitation 1.36 in 0.37 in 1.36 in (2013)
Month to date precipitation 13.01 5.04  
Year to date precipitation 35.12 30.00  
Sea Level Pressure  
Sea Level Pressure 30.03 in    
Wind  
Wind Speed 8 mph (South)    
Max Wind Speed 17 mph    
Max Gust Speed 32 mph    
Visibility 2 miles    
Events Fog , Rain    
T = Trace of Precipitation, MM = Missing Value Source: NWS Daily Summary

Daily Weather History Graph

Daily Weather History Graph

Search for Another Location

Airport or City:

Trip Planner

Search our weather history database for the weather conditions in past years. The results will help you decide how hot, cold, wet, or windy it might be!

Date:

Astronomy

Mar. 14, 2013 Rise Set
Actual Time 7:32 AM PDT 7:22 PM PDT
Civil Twilight 7:01 AM PDT 7:53 PM PDT
Nautical Twilight 6:25 AM PDT 8:29 PM PDT
Astronomical Twilight 5:48 AM PDT 9:06 PM PDT
Moon 8:33 AM PDT (3/14) 11:03 PM PDT (3/14)
Length of Visible Light 12h 51m
Length of Day
11h 50m
Waxing Crescent, 9% of the Moon is Illuminated
Mar 14
Waxing Crescent
Mar 19
First Quarter
Mar 27
Full
Apr 2
Last Quarter
Apr 10
New

Hourly Weather History & Observations

Time (PDT) Temp. Dew Point Humidity Pressure Visibility Wind Dir Wind Speed Gust Speed Precip Events Conditions
12:53 AM 51.1 °F 46.0 °F 83% 30.06 in 5.0 mi Variable 3.5 mph - N/A   Haze
1:53 AM 50.0 °F 45.0 °F 83% 30.06 in 5.0 mi South 5.8 mph - N/A   Haze
2:53 AM 50.0 °F 45.0 °F 83% 30.04 in 4.0 mi SSE 5.8 mph - N/A   Haze
3:53 AM 50.0 °F 45.0 °F 83% 30.03 in 4.0 mi Variable 5.8 mph - N/A   Haze
4:39 AM 48.2 °F 44.6 °F 87% 30.02 in 4.0 mi SE 4.6 mph - 0.00 in   Overcast
4:53 AM 48.9 °F 45.0 °F 86% 30.03 in 4.0 mi South 3.5 mph - 0.00 in   Overcast
5:15 AM 48.2 °F 44.6 °F 87% 30.00 in 4.0 mi Calm Calm - N/A   Overcast
5:38 AM 48.2 °F 44.6 °F 87% 30.01 in 4.0 mi Calm Calm - N/A   Overcast
5:53 AM 48.9 °F 45.0 °F 86% 30.02 in 4.0 mi SSW 3.5 mph - N/A   Overcast
6:13 AM 50.0 °F 44.6 °F 82% 30.02 in 4.0 mi Variable 3.5 mph - N/A   Haze
6:39 AM 48.2 °F 44.6 °F 87% 30.01 in 4.0 mi Variable 6.9 mph 16.1 mph N/A   Haze
6:53 AM 48.9 °F 44.1 °F 83% 30.02 in 4.0 mi SSE 9.2 mph - N/A   Haze
7:08 AM 48.2 °F 44.6 °F 87% 30.02 in 2.0 mi SSE 8.1 mph - N/A   Overcast
7:53 AM 48.9 °F 45.0 °F 86% 30.03 in 2.0 mi SSE 9.2 mph - N/A   Overcast
8:22 AM 48.2 °F 44.6 °F 87% 30.02 in 1.2 mi SSE 8.1 mph 18.4 mph N/A   Overcast
8:42 AM 48.2 °F 44.6 °F 87% 30.02 in 1.5 mi SSE 8.1 mph 16.1 mph N/A   Overcast
8:51 AM 48.2 °F 44.6 °F 87% 30.02 in 1.2 mi SSE 8.1 mph - N/A   Overcast
8:53 AM 48.9 °F 45.0 °F 86% 30.02 in 1.2 mi Variable 4.6 mph - N/A   Overcast
9:01 AM 50.0 °F 44.6 °F 82% 30.02 in 2.0 mi SSE 5.8 mph 16.1 mph N/A   Haze
9:18 AM 50.0 °F 44.6 °F 82% 30.01 in 3.0 mi SSE 10.4 mph - 0.00 in Rain Light Rain
9:34 AM 50.0 °F 46.4 °F 87% 30.02 in 2.5 mi South 5.8 mph - 0.00 in Rain Light Rain
9:45 AM 50.0 °F 46.4 °F 87% 30.03 in 1.5 mi South 4.6 mph - 0.01 in Rain Light Rain
9:53 AM 50.0 °F 46.0 °F 86% 30.03 in 1.2 mi Variable 5.8 mph - 0.02 in Rain Light Rain
10:15 AM 50.0 °F 46.4 °F 87% 30.03 in 1.5 mi SSE 5.8 mph 25.3 mph 0.03 in Rain Light Rain
10:53 AM 50.0 °F 46.0 °F 86% 30.02 in 1.8 mi South 8.1 mph 19.6 mph 0.07 in Rain Light Rain
11:29 AM 50.0 °F 46.4 °F 87% 30.03 in 1.2 mi SSE 11.5 mph 23.0 mph 0.04 in Rain Light Rain
11:50 AM 50.0 °F 46.4 °F 87% 30.02 in 1.5 mi SSE 12.7 mph 27.6 mph 0.05 in Rain Light Rain
11:53 AM 50.0 °F 46.0 °F 86% 30.03 in 1.5 mi South 12.7 mph 27.6 mph 0.06 in Rain Light Rain
12:30 PM 50.0 °F 46.4 °F 87% 30.02 in 2.0 mi South 10.4 mph 25.3 mph 0.02 in Rain Light Rain
12:40 PM 50.0 °F 46.4 °F 87% 30.02 in 1.5 mi South 12.7 mph 21.9 mph 0.02 in Rain Light Rain
12:53 PM 50.0 °F 46.0 °F 86% 30.03 in 1.2 mi South 9.2 mph 27.6 mph 0.03 in Rain Light Rain
1:53 PM 48.9 °F 46.0 °F 90% 30.04 in 1.0 mi South 19.6 mph 32.2 mph 0.09 in Rain Rain
2:00 PM 48.2 °F 46.4 °F 93% 30.03 in 0.8 mi South 13.8 mph 32.2 mph 0.03 in Rain Rain
2:33 PM 48.2 °F 46.4 °F 93% 30.03 in 1.0 mi South 13.8 mph 24.2 mph 0.14 in Rain Rain
2:53 PM 48.9 °F 46.0 °F 90% 30.03 in 0.8 mi SSE 11.5 mph 25.3 mph 0.20 in Rain Rain
3:07 PM 48.2 °F 46.4 °F 93% 30.02 in 1.0 mi South 12.7 mph 26.5 mph 0.03 in Rain Rain
3:40 PM 48.2 °F 46.4 °F 93% 30.02 in 0.8 mi South 11.5 mph 19.6 mph 0.11 in Rain Rain
3:53 PM 48.9 °F 45.0 °F 86% 30.02 in 1.0 mi South 8.1 mph 24.2 mph 0.14 in Rain Rain
4:53 PM 48.9 °F 46.0 °F 90% 30.02 in 0.8 mi South 12.7 mph 24.2 mph 0.16 in Rain Rain
5:04 PM 48.2 °F 46.4 °F 93% 30.02 in 1.0 mi South 13.8 mph 24.2 mph 0.02 in Rain Rain
5:37 PM 48.2 °F 46.4 °F 93% 30.02 in 0.8 mi South 12.7 mph 25.3 mph 0.12 in Rain Rain
5:53 PM 50.0 °F 46.0 °F 86% 30.02 in 0.5 mi South 9.2 mph 24.2 mph 0.16 in Fog , Rain Rain
6:03 PM 50.0 °F 46.4 °F 87% 30.02 in 0.2 mi South 10.4 mph 21.9 mph 0.05 in Fog , Rain Rain
6:12 PM 50.0 °F 46.4 °F 87% 30.02 in 0.5 mi South 8.1 mph 24.2 mph 0.07 in Fog , Rain Rain
6:20 PM 50.0 °F 46.4 °F 87% 30.02 in 0.2 mi South 11.5 mph 24.2 mph 0.10 in Fog , Rain Rain
6:28 PM 50.0 °F 46.4 °F 87% 30.02 in 0.5 mi South 10.4 mph 28.8 mph 0.12 in Fog , Rain Light Rain
6:53 PM 50.0 °F 46.0 °F 86% 30.02 in 0.5 mi South 12.7 mph 21.9 mph 0.17 in Fog , Rain Light Rain
7:53 PM 50.0 °F 46.0 °F 86% 30.04 in 1.0 mi SSE 11.5 mph 21.9 mph 0.10 in Rain Light Rain
8:01 PM 50.0 °F 46.4 °F 87% 30.04 in 0.8 mi South 11.5 mph 18.4 mph 0.01 in Rain Light Rain
8:39 PM 50.0 °F 46.4 °F 87% 30.05 in 1.2 mi South 8.1 mph - 0.06 in Rain Light Rain
8:50 PM 50.0 °F 46.4 °F 87% 30.05 in 0.8 mi Variable 5.8 mph - 0.07 in Rain Light Rain
8:53 PM 50.0 °F 46.9 °F 89% 30.06 in 0.8 mi South 9.2 mph - 0.07 in Rain Light Rain
9:27 PM 50.0 °F 46.4 °F 87% 30.06 in 0.8 mi South 3.5 mph - 0.03 in Rain Light Rain
9:53 PM 50.0 °F 46.9 °F 89% 30.08 in 0.5 mi SSE 4.6 mph - 0.04 in Fog Fog
10:53 PM 50.0 °F 46.9 °F 89% 30.11 in 0.8 mi South 5.8 mph - 0.02 in   Mist
11:53 PM 50.0 °F 46.9 °F 89% 30.13 in 0.8 mi South 3.5 mph - 0.02 in   Mist